Location: Arbon
(43.0005°N, 0.7472°E)
Time: 08:52:20
(UTC+00:00)

A-11 Canister half - Pass Details

Date: 02 December 2020
Orbit: 1517 x 1683 km, 47.2° (Epoch: 22 January)

Event Time Altitude Azimuth Distance (km) Brightness Sun altitude
Rises 17:36:08 0° 296° (WNW) 4,923 12.4 -13.0°
Reaches altitude 10° 17:39:31 10° 289° (WNW) 3,942 12.0 -13.6°
Maximum altitude 17:48:39 40° 225° (SW) 2,310 10.4 -15.2°
Drops below altitude 10° 17:57:45 10° 160° (SSE) 3,912 11.1 -16.8°
Sets 18:01:07 0° 153° (SSE) 4,882 11.5 -17.4°
